Showing default

ICEYE-X40, 60549

Orbit data source: Space-Track

ICEYE-X40, 60549 is a payload satellite owned by Yahsat (AE) in SSO that was launched on Fri, 16 Aug 2024 UTC via an FALCON 9 launch vehicle from the Air Force Western Test Range (AFWTR). Payload-class satellites include a variety of spacecraft equipped with specific instruments for various scientific and technological missions. These include communications satellites like Starlink; space stations such as the ISS; scientific satellites like the Hubble; Earth observation satellites from companies like Planet Labs, Umbra, and HawkEye 360; GPS; miniature CubeSats for education and research; and military/defense satellites.

Loading next visibility...
Identifier
60549, 2024-149CK
Orbit
SSO
Country
Flag of AEAE / UAE
Related business
Manufacturer
ICEYE
Mission
Operational Commercial Radar Imaging
Bus & Motor
ICEYE, Unknown motor
Mass
80 kg wet, 80 kg dry
Launch date (UTC)
2024-08-16 (1 year ago)
Launch vehicle
FALCON 9
Launch site
Air Force Western Test Range (AFWTR)
Object type
Payload
Rocket body
Debris
Shape & HBR
Box + 1 Pan, 0.8 m
Radar Cross Section
0.776 m², Medium (>0.1 m² and < 1m²)

Expand to show TLE details & history
Last TLE update: 16 hours ago

TLE from 16 hours ago
0 ICEYE-X40
1 60549U 24149CK  25353.16586468  .00001796  00000-0  16052-3 0  9996
2 60549  97.7002  67.5084 0003831 342.2300  17.8787 14.97138824 73139
Epoch: 2025-12-19T03:58Z
TLE epoch observation values (Epoch: 2025-12-19T03:58:50.708Z)
Latitude
-0.00004°
Longitude
-80.2138°
Altitude
576.257 km
Speed
7.574 km/s
True Right ascension
04h 30m 02s
True Declination
0° 00' 00"
Sunlit
Object was in full shadow at epoch
Visualization orbit readout
Latitude
Unknown
Longitude
Unknown
Altitude
Unknown
Speed
Unknown
Apparent Right ascension
Unknown
Apparent Declination
Unknown
Sunlit
N/A
Visualization observer readout
Local Sidereal Time
19:21:40
Azimuth
Unknown
Elevation
Unknown
Doppler factor
Unknown
Orbital elements
Apogee altitude
575.414 km
Perigee altitude
570.088 km
Semi-major axis
6,950.888 km
Eccentricity
0.00038
Inclination
97.7002°
RAAN
67.5084°
Arg. of periapsis
342.23°
True anomaly
17.89218°
Mean anomaly
17.8787°
Eccentric anomaly
17.88544°
Mean motion
3.74527 °/min
Orbital period
96.12 mins
BSTAR
0.00016052
Loading maneuver chart data...
Computing Atmospheric mass density...
Loading historical data...
Loading historical data...
Loading historical data...
Loading historical data...
Loading historical data...
Loading historical data...
Loading historical data...

Documentation

Showing up to 5 results
|